Weather History for Siloam Springs, AR

Change the Weather History Date:

Tuesday, April 30, 2013

  Actual Average Record
Temperature  
Mean Temperature 70 °F -  
Max Temperature 80 °F 70 °F 82 °F (2007)
Min Temperature 60 °F 50 °F 37 °F (2005)
Cooling Degree Days 5    
Growing Degree Days 20 (Base 50)    
Moisture  
Dew Point 52 °F    
Average Humidity 52    
Maximum Humidity 72    
Minimum Humidity 34    
Precipitation  
Precipitation 0.00 in - - ()
Sea Level Pressure  
Sea Level Pressure 29.86 in    
Wind  
Wind Speed 10 mph (SSE)    
Max Wind Speed 20 mph    
Max Gust Speed 26 mph    
Visibility 10 miles    
Events      
Averages and records for this station are not official NWS values.
T = Trace of Precipitation, MM = Missing Value Source: NWS Daily Summary

Daily Weather History Graph

Daily Weather History Graph

Search for Another Location

Airport:

Trip Planner

Search our weather history database for the weather conditions in past years. The results will help you decide how hot, cold, wet, or windy it might be!

Date:

Astronomy

Apr. 30, 2013 Rise Set
Actual Time 6:25 AM CDT 8:04 PM CDT
Civil Twilight 5:58 AM CDT 8:32 PM CDT
Nautical Twilight 5:25 AM CDT 9:05 PM CDT
Astronomical Twilight 4:50 AM CDT 9:40 PM CDT
Moon 12:26 AM CDT (4/30) 10:57 AM CDT (4/30)
Length of Visible Light 14h 34m
Length of Day
13h 39m
Waning Gibbous, 70% of the Moon is Illuminated
Apr 30
Waning Gibbous
May 2
Last Quarter
May 9
New
May 17
First Quarter
May 24
Full

Hourly Weather History & Observations

Time (CDT) Temp. Heat Index Dew Point Humidity Pressure Visibility Wind Dir Wind Speed Gust Speed Precip Events Conditions
12:15 AM 64.4 °F - 53.6 °F 68% 29.84 in 10.0 mi South 10.4 mph - N/A   Clear
12:35 AM 64.4 °F - 53.6 °F 68% 29.85 in 10.0 mi South 9.2 mph - N/A   Clear
12:55 AM 64.4 °F - 53.6 °F 68% 29.85 in 10.0 mi South 11.5 mph - N/A   Clear
1:15 AM 66.2 °F - 53.6 °F 64% 29.84 in 10.0 mi SSE 8.1 mph - N/A   Clear
1:35 AM 66.2 °F - 51.8 °F 60% 29.84 in 10.0 mi South 9.2 mph - N/A   Clear
1:55 AM 64.4 °F - 51.8 °F 64% 29.84 in 10.0 mi SSE 9.2 mph - N/A   Clear
2:15 AM 64.4 °F - 53.6 °F 68% 29.84 in 10.0 mi SSE 9.2 mph - N/A   Clear
2:35 AM 64.4 °F - 53.6 °F 68% 29.84 in 10.0 mi SSE 6.9 mph - N/A   Clear
2:55 AM 64.4 °F - 53.6 °F 68% 29.84 in 10.0 mi SSE 9.2 mph - N/A   Clear
3:15 AM 64.4 °F - 53.6 °F 68% 29.83 in 10.0 mi SSE 8.1 mph - N/A   Clear
3:35 AM 64.4 °F - 51.8 °F 64% 29.84 in 10.0 mi SSE 10.4 mph - N/A   Clear
3:55 AM 64.4 °F - 51.8 °F 64% 29.84 in 10.0 mi SSE 9.2 mph - N/A   Clear
4:15 AM 64.4 °F - 51.8 °F 64% 29.84 in 10.0 mi SSE 8.1 mph - N/A   Clear
4:35 AM 64.4 °F - 51.8 °F 64% 29.84 in 10.0 mi SSE 8.1 mph - N/A   Clear
4:55 AM 62.6 °F - 51.8 °F 68% 29.85 in 10.0 mi SSE 5.8 mph - N/A   Clear
5:15 AM 62.6 °F - 51.8 °F 68% 29.85 in 10.0 mi South 5.8 mph - N/A   Clear
5:35 AM 62.6 °F - 50.0 °F 63% 29.85 in 10.0 mi South 6.9 mph - N/A   Clear
5:55 AM 60.8 °F - 51.8 °F 72% 29.86 in 10.0 mi SSE 8.1 mph - N/A   Clear
6:15 AM 60.8 °F - 50.0 °F 68% 29.87 in 10.0 mi SSE 4.6 mph - N/A   Clear
6:35 AM 60.8 °F - 50.0 °F 68% 29.87 in 10.0 mi SSE 4.6 mph - N/A   Clear
6:55 AM 60.8 °F - 50.0 °F 68% 29.88 in 10.0 mi SSE 4.6 mph - N/A   Clear
7:15 AM 60.8 °F - 50.0 °F 68% 29.89 in 10.0 mi SSE 4.6 mph - N/A   Clear
7:35 AM 62.6 °F - 51.8 °F 68% 29.89 in 10.0 mi South 5.8 mph - N/A   Clear
7:55 AM 64.4 °F - 51.8 °F 64% 29.89 in 10.0 mi South 8.1 mph - N/A   Clear
8:15 AM 66.2 °F - 53.6 °F 64% 29.89 in 10.0 mi South 8.1 mph - N/A   Clear
8:35 AM 66.2 °F - 53.6 °F 64% 29.89 in 10.0 mi South 10.4 mph - N/A   Clear
8:55 AM 68.0 °F - 55.4 °F 64% 29.89 in 10.0 mi South 15.0 mph - N/A   Clear
9:15 AM 69.8 °F - 55.4 °F 60% 29.90 in 10.0 mi South 11.5 mph 18.4 mph N/A   Clear
9:35 AM 71.6 °F - 57.2 °F 60% 29.90 in 10.0 mi South 11.5 mph - N/A   Clear
9:55 AM 71.6 °F - 57.2 °F 60% 29.90 in 10.0 mi South 17.3 mph - N/A   Clear
10:15 AM 73.4 °F - 57.2 °F 57% 29.89 in 10.0 mi South 18.4 mph 25.3 mph N/A   Clear
10:35 AM 73.4 °F - 57.2 °F 57% 29.89 in 10.0 mi South 17.3 mph 24.2 mph N/A   Clear
10:55 AM 73.4 °F - 55.4 °F 53% 29.89 in 10.0 mi South 16.1 mph - N/A   Clear
11:15 AM 75.2 °F - 55.4 °F 50% 29.89 in 10.0 mi South 18.4 mph 23.0 mph N/A   Clear
11:35 AM 75.2 °F - 55.4 °F 50% 29.89 in 10.0 mi South 16.1 mph 25.3 mph N/A   Clear
11:55 AM 77.0 °F - 53.6 °F 44% 29.89 in 10.0 mi South 17.3 mph 23.0 mph N/A   Clear
12:15 PM 78.8 °F - 53.6 °F 42% 29.88 in 10.0 mi South 18.4 mph 24.2 mph N/A   Clear
12:35 PM 78.8 °F - 51.8 °F 39% 29.87 in 10.0 mi South 17.3 mph 24.2 mph N/A   Clear
12:55 PM 78.8 °F - 50.0 °F 36% 29.86 in 10.0 mi South 17.3 mph 25.3 mph N/A   Clear
1:15 PM 78.8 °F - 48.2 °F 34% 29.86 in 10.0 mi South 17.3 mph 26.5 mph N/A   Clear
1:35 PM 78.8 °F - 48.2 °F 34% 29.86 in 10.0 mi South 15.0 mph 24.2 mph N/A   Clear
1:55 PM 78.8 °F - 51.8 °F 39% 29.86 in 10.0 mi South 19.6 mph 25.3 mph N/A   Clear
2:15 PM 78.8 °F - 53.6 °F 42% 29.86 in 10.0 mi SSE 16.1 mph 25.3 mph N/A   Clear
2:35 PM 80.6 °F 80.5 °F 55.4 °F 42% 29.86 in 10.0 mi South 15.0 mph 20.7 mph N/A   Clear
3:15 PM 80.6 °F 80.3 °F 53.6 °F 39% 29.85 in 10.0 mi South 17.3 mph 24.2 mph N/A   Clear
3:35 PM 80.6 °F - 51.8 °F 37% 29.85 in 10.0 mi South 13.8 mph 20.7 mph N/A   Clear
3:55 PM 80.6 °F - 51.8 °F 37% 29.84 in 10.0 mi South 16.1 mph - N/A   Clear
4:15 PM 80.6 °F - 51.8 °F 37% 29.84 in 10.0 mi South 13.8 mph 20.7 mph N/A   Clear
4:35 PM 80.6 °F 80.3 °F 53.6 °F 39% 29.83 in 10.0 mi SSE 11.5 mph 18.4 mph N/A   Scattered Clouds
4:55 PM 80.6 °F - 51.8 °F 37% 29.83 in 10.0 mi SE 15.0 mph 21.9 mph N/A   Mostly Cloudy
5:15 PM 80.6 °F - 51.8 °F 37% 29.83 in 10.0 mi South 11.5 mph 20.7 mph N/A   Overcast
5:35 PM 78.8 °F - 48.2 °F 34% 29.83 in 10.0 mi SSE 17.3 mph 20.7 mph N/A   Overcast
5:55 PM 78.8 °F - 48.2 °F 34% 29.83 in 10.0 mi South 13.8 mph 17.3 mph N/A   Scattered Clouds
6:15 PM 78.8 °F - 48.2 °F 34% 29.83 in 10.0 mi SSE 10.4 mph 17.3 mph N/A   Clear
6:35 PM 78.8 °F - 50.0 °F 36% 29.84 in 10.0 mi SE 11.5 mph 16.1 mph N/A   Clear
6:55 PM 77.0 °F - 48.2 °F 36% 29.83 in 10.0 mi SSE 12.7 mph 18.4 mph N/A   Clear
7:15 PM 75.2 °F - 48.2 °F 38% 29.84 in 10.0 mi SSE 9.2 mph - N/A   Clear
7:35 PM 73.4 °F - 48.2 °F 41% 29.84 in 10.0 mi SE 11.5 mph - N/A   Clear
7:55 PM 73.4 °F - 46.4 °F 38% 29.85 in 10.0 mi SE 10.4 mph - N/A   Clear
8:15 PM 71.6 °F - 46.4 °F 41% 29.84 in 10.0 mi SE 9.2 mph - N/A   Clear
8:35 PM 71.6 °F - 46.4 °F 41% 29.85 in 10.0 mi SE 9.2 mph - N/A   Clear
8:55 PM 69.8 °F - 44.6 °F 40% 29.85 in 10.0 mi SE 8.1 mph - N/A   Clear
9:15 PM 69.8 °F - 44.6 °F 40% 29.86 in 10.0 mi ESE 8.1 mph - N/A   Clear
9:35 PM 68.0 °F - 44.6 °F 43% 29.86 in 10.0 mi ESE 9.2 mph - N/A   Clear
9:55 PM 68.0 °F - 44.6 °F 43% 29.87 in 10.0 mi ESE 8.1 mph - N/A   Clear
10:15 PM - - - N/A% 29.88 in 10.0 mi ESE 5.8 mph - N/A   Clear
10:35 PM - - - N/A% 29.88 in 10.0 mi SE 5.8 mph - N/A   Clear
10:55 PM - - - N/A% 29.89 in 10.0 mi ESE 6.9 mph - N/A   Clear
11:15 PM - - - N/A% 29.89 in 10.0 mi ESE 5.8 mph - N/A   Clear
11:35 PM - - - N/A% 29.89 in 10.0 mi East 5.8 mph - N/A   Clear